Time,TemperatureF,DewpointF,PressureIn,WindDirection,WindDirectionDegrees,WindSpeedMPH,WindSpeedGustMPH,Humidity,HourlyPrecipIn,Conditions,Clouds,dailyrainin,SoftwareType,DateUTC
2013-09-19 00:01:00,-999.0,-99.9,30.21,SW,218,4.0,6.0,-999,-99.99,,,-99.99,,2013-09-19 04:01:00,
2013-09-19 00:25:00,-999.0,-99.9,30.21,SSW,211,3.0,7.0,-999,-99.99,,,-99.99,,2013-09-19 04:25:00,
2013-09-19 00:34:00,-999.0,-99.9,30.21,SW,216,4.0,7.0,-999,-99.99,,,-99.99,,2013-09-19 04:34:00,
2013-09-19 00:44:00,-999.0,-99.9,30.21,SW,219,3.0,7.0,-999,-99.99,,,-99.99,,2013-09-19 04:44:00,
2013-09-19 01:03:00,-999.0,-99.9,30.21,SW,214,5.0,8.0,-999,-99.99,,,-99.99,,2013-09-19 05:03:00,
2013-09-19 01:13:00,-999.0,-99.9,30.21,SSW,213,4.0,6.0,-999,-99.99,,,-99.99,,2013-09-19 05:13:00,
2013-09-19 01:23:00,-999.0,-99.9,30.21,SSW,210,4.0,8.0,-999,-99.99,,,-99.99,,2013-09-19 05:23:00,
2013-09-19 01:43:00,-999.0,-99.9,30.21,SSW,202,3.0,7.0,-999,-99.99,,,-99.99,,2013-09-19 05:43:00,
2013-09-19 01:52:00,-999.0,-99.9,30.21,SSW,198,3.0,4.0,-999,-99.99,,,-99.99,,2013-09-19 05:52:00,
2013-09-19 02:12:00,-999.0,-99.9,30.21,WNW,297,0.0,1.0,-999,-99.99,,,-99.99,,2013-09-19 06:12:00,
2013-09-19 02:22:00,-999.0,-99.9,30.21,SSW,194,1.0,1.0,-999,-99.99,,,-99.99,,2013-09-19 06:22:00,
2013-09-19 02:32:00,-999.0,-99.9,30.21,SSW,202,2.0,3.0,-999,-99.99,,,-99.99,,2013-09-19 06:32:00,
2013-09-19 02:52:00,-999.0,-99.9,30.20,SSW,202,2.0,4.0,-999,-99.99,,,-99.99,,2013-09-19 06:52:00,
2013-09-19 03:02:00,-999.0,-99.9,30.20,SW,217,2.0,4.0,-999,-99.99,,,-99.99,,2013-09-19 07:02:00,
2013-09-19 03:12:00,-999.0,-99.9,30.20,SW,223,2.0,4.0,-999,-99.99,,,-99.99,,2013-09-19 07:12:00,
2013-09-19 03:22:00,-999.0,-99.9,30.20,SSW,197,2.0,4.0,-999,-99.99,,,-99.99,,2013-09-19 07:22:00,
2013-09-19 03:33:00,-999.0,-99.9,30.20,South,182,2.0,3.0,-999,-99.99,,,-99.99,,2013-09-19 07:33:00,
2013-09-19 03:42:00,-999.0,-99.9,30.19,SW,217,2.0,4.0,-999,-99.99,,,-99.99,,2013-09-19 07:42:00,
2013-09-19 03:52:00,-999.0,-99.9,30.19,South,182,2.0,4.0,-999,-99.99,,,-99.99,,2013-09-19 07:52:00,
2013-09-19 04:02:00,-999.0,-99.9,30.19,SSW,204,2.0,4.0,-999,-99.99,,,-99.99,,2013-09-19 08:02:00,
2013-09-19 04:12:00,-999.0,-99.9,30.19,South,180,2.0,4.0,-999,-99.99,,,-99.99,,2013-09-19 08:12:00,
2013-09-19 04:22:00,53.0,-99.9,30.19,North,-999,-999.0,-999.0,-999,-99.99,,,-99.99,,2013-09-19 08:22:00,
2013-09-19 04:33:00,-999.0,-99.9,30.19,SSW,203,1.0,3.0,-999,-99.99,,,-99.99,,2013-09-19 08:33:00,
2013-09-19 04:42:00,-999.0,-99.9,30.19,South,172,1.0,3.0,-999,-99.99,,,-99.99,,2013-09-19 08:42:00,
2013-09-19 05:34:00,-999.0,-99.9,30.19,South,188,0.0,3.0,-999,-99.99,,,-99.99,,2013-09-19 09:34:00,
2013-09-19 05:43:00,-999.0,-99.9,30.19,South,186,1.0,2.0,-999,-99.99,,,-99.99,,2013-09-19 09:43:00,
2013-09-19 05:53:00,-999.0,-99.9,30.19,South,187,1.0,2.0,-999,-99.99,,,-99.99,,2013-09-19 09:53:00,
2013-09-19 06:12:00,-999.0,-99.9,30.19,SSW,195,2.0,5.0,-999,-99.99,,,-99.99,,2013-09-19 10:12:00,
2013-09-19 06:24:00,-999.0,-99.9,30.19,SSW,194,3.0,4.0,-999,-99.99,,,-99.99,,2013-09-19 10:24:00,
2013-09-19 06:52:00,-999.0,-99.9,30.19,SSW,198,2.0,3.0,-999,-99.99,,,-99.99,,2013-09-19 10:52:00,
2013-09-19 07:12:00,-999.0,-99.9,30.20,SSW,196,2.0,4.0,-999,-99.99,,,-99.99,,2013-09-19 11:12:00,
2013-09-19 07:33:00,-999.0,-99.9,30.20,SW,219,2.0,4.0,-999,-99.99,,,-99.99,,2013-09-19 11:33:00,
2013-09-19 07:42:00,-999.0,-99.9,30.20,South,182,2.0,4.0,-999,-99.99,,,-99.99,,2013-09-19 11:42:00,
2013-09-19 07:53:00,-999.0,-99.9,30.19,South,189,4.0,5.0,-999,-99.99,,,-99.99,,2013-09-19 11:53:00,
2013-09-19 08:22:00,-999.0,-99.9,30.19,SSW,207,2.0,5.0,-999,-99.99,,,-99.99,,2013-09-19 12:22:00,
2013-09-19 08:32:00,-999.0,-99.9,30.20,SW,218,3.0,5.0,-999,-99.99,,,-99.99,,2013-09-19 12:32:00,
2013-09-19 08:43:00,-999.0,-99.9,30.19,SSW,211,3.0,5.0,-999,-99.99,,,-99.99,,2013-09-19 12:43:00,
2013-09-19 08:52:00,-999.0,-99.9,30.19,SW,232,3.0,5.0,-999,-99.99,,,-99.99,,2013-09-19 12:52:00,
2013-09-19 09:02:00,-999.0,-99.9,30.19,WSW,247,2.0,4.0,-999,-99.99,,,-99.99,,2013-09-19 13:02:00,
2013-09-19 09:11:00,-999.0,-99.9,30.19,WSW,251,5.0,7.0,-999,-99.99,,,-99.99,,2013-09-19 13:11:00,
2013-09-19 09:43:00,-999.0,-99.9,30.19,West,268,4.0,8.0,-999,-99.99,,,-99.99,,2013-09-19 13:43:00,
2013-09-19 10:22:00,64.0,-99.9,30.19,North,-999,-999.0,-999.0,-999,-99.99,,,-99.99,,2013-09-19 14:22:00,
2013-09-19 10:42:00,-999.0,-99.9,30.19,WSW,245,2.0,6.0,-999,-99.99,,,-99.99,,2013-09-19 14:42:00,
2013-09-19 11:02:00,-999.0,-99.9,30.18,NW,309,5.0,6.0,-999,-99.99,,,-99.99,,2013-09-19 15:02:00,
2013-09-19 11:11:00,-999.0,-99.9,30.18,WNW,288,4.0,7.0,-999,-99.99,,,-99.99,,2013-09-19 15:11:00,
2013-09-19 11:54:00,-999.0,-99.9,30.17,North,359,2.0,3.0,-999,-99.99,,,-99.99,,2013-09-19 15:54:00,
2013-09-19 12:04:00,-999.0,-99.9,30.17,North,9,3.0,4.0,-999,-99.99,,,-99.99,,2013-09-19 16:04:00,
2013-09-19 12:13:00,-999.0,-99.9,30.17,WNW,303,4.0,7.0,-999,-99.99,,,-99.99,,2013-09-19 16:13:00,
2013-09-19 12:33:00,-999.0,-99.9,30.16,NNW,328,3.0,4.0,-999,-99.99,,,-99.99,,2013-09-19 16:33:00,
2013-09-19 12:53:00,-999.0,-99.9,30.16,SW,221,2.0,6.0,-999,-99.99,,,-99.99,,2013-09-19 16:53:00,
2013-09-19 13:12:00,-999.0,-99.9,30.15,WSW,245,4.0,13.0,-999,-99.99,,,-99.99,,2013-09-19 17:12:00,
2013-09-19 13:23:00,-999.0,-99.9,30.15,West,278,6.0,9.0,-999,-99.99,,,-99.99,,2013-09-19 17:23:00,
2013-09-19 13:42:00,-999.0,-99.9,30.14,SSW,208,5.0,8.0,-999,-99.99,,,-99.99,,2013-09-19 17:42:00,
2013-09-19 14:12:00,-999.0,-99.9,30.13,WSW,244,5.0,10.0,-999,-99.99,,,-99.99,,2013-09-19 18:12:00,
2013-09-19 14:32:00,-999.0,-99.9,30.12,SW,220,4.0,9.0,-999,-99.99,,,-99.99,,2013-09-19 18:32:00,
2013-09-19 14:42:00,-999.0,-99.9,30.12,WSW,248,8.0,11.0,-999,-99.99,,,-99.99,,2013-09-19 18:42:00,
2013-09-19 15:02:00,-999.0,-99.9,30.11,SSW,208,4.0,8.0,-999,-99.99,,,-99.99,,2013-09-19 19:02:00,
2013-09-19 15:12:00,-999.0,-99.9,30.11,SSW,196,4.0,10.0,-999,-99.99,,,-99.99,,2013-09-19 19:12:00,
2013-09-19 15:32:00,-999.0,-99.9,30.10,SSW,201,6.0,9.0,-999,-99.99,,,-99.99,,2013-09-19 19:32:00,
2013-09-19 16:02:00,-999.0,-99.9,30.10,South,186,7.0,11.0,-999,-99.99,,,-99.99,,2013-09-19 20:02:00,
2013-09-19 16:22:00,-999.0,-99.9,30.09,West,269,5.0,11.0,-999,-99.99,,,-99.99,,2013-09-19 20:22:00,
2013-09-19 16:32:00,-999.0,-99.9,30.09,SW,236,4.0,9.0,-999,-99.99,,,-99.99,,2013-09-19 20:32:00,
2013-09-19 17:22:00,-999.0,-99.9,30.09,SSE,161,5.0,11.0,-999,-99.99,,,-99.99,,2013-09-19 21:22:00,
2013-09-19 17:44:00,-999.0,-99.9,30.09,SSE,161,7.0,11.0,-999,-99.99,,,-99.99,,2013-09-19 21:44:00,
2013-09-19 17:55:00,-999.0,-99.9,30.09,SSE,161,8.0,11.0,-999,-99.99,,,-99.99,,2013-09-19 21:55:00,
2013-09-19 18:24:00,-999.0,-99.9,30.09,SSE,153,6.0,9.0,-999,-99.99,,,-99.99,,2013-09-19 22:24:00,
2013-09-19 18:34:00,-999.0,-99.9,30.09,South,169,6.0,12.0,-999,-99.99,,,-99.99,,2013-09-19 22:34:00,
2013-09-19 19:12:00,-999.0,-99.9,30.09,SSE,165,5.0,9.0,-999,-99.99,,,-99.99,,2013-09-19 23:12:00,
2013-09-19 19:23:00,-999.0,-99.9,30.09,SSE,161,5.0,8.0,-999,-99.99,,,-99.99,,2013-09-19 23:23:00,
2013-09-19 19:43:00,-999.0,-99.9,30.09,SSE,166,5.0,8.0,-999,-99.99,,,-99.99,,2013-09-19 23:43:00,
2013-09-19 19:53:00,-999.0,-99.9,30.09,South,170,5.0,7.0,-999,-99.99,,,-99.99,,2013-09-19 23:53:00,
2013-09-19 20:32:00,-999.0,-99.9,30.11,South,183,5.0,8.0,-999,-99.99,,,-99.99,,2013-09-20 00:32:00,
2013-09-19 21:22:00,-999.0,-99.9,30.12,South,188,6.0,8.0,-999,-99.99,,,-99.99,,2013-09-20 01:22:00,
2013-09-19 21:32:00,-999.0,-99.9,30.12,South,187,6.0,9.0,-999,-99.99,,,-99.99,,2013-09-20 01:32:00,
2013-09-19 21:52:00,65.0,-99.9,30.11,North,-999,-999.0,-999.0,-999,-99.99,,,-99.99,,2013-09-20 01:52:00,
2013-09-19 22:03:00,-999.0,-99.9,30.11,South,187,5.0,9.0,-999,-99.99,,,-99.99,,2013-09-20 02:03:00,
2013-09-19 22:12:00,-999.0,-99.9,30.11,South,190,6.0,8.0,-999,-99.99,,,-99.99,,2013-09-20 02:12:00,
2013-09-19 22:32:00,-999.0,-99.9,30.11,South,187,6.0,9.0,-999,-99.99,,,-99.99,,2013-09-20 02:32:00,
2013-09-19 23:02:00,-999.0,-99.9,30.10,South,186,7.0,9.0,-999,-99.99,,,-99.99,,2013-09-20 03:02:00,
2013-09-19 23:23:00,-999.0,-99.9,30.10,South,191,5.0,8.0,-999,-99.99,,,-99.99,,2013-09-20 03:23:00,